Regional Weather Roundup
Issued by NWS

Home | Current Version | Previous Version | Text Only | Print | Product List | Glossary On
Versions: 1 2 3 4 5 6 7 8 9 10 11 12 13 14 15 16 17 18 19 20 21 22 23 24 25 26 27 28 29 30 31 32 33 34 35 36 37 38 39 40 41 42 43 44 45 46 47 48 49 50
296
ASUS43 KDTX 291210
RWRMI
MICHIGAN HOURLY REGIONAL WEATHER ROUNDUP
NATIONAL WEATHER SERVICE DETROIT/PONTIAC MI
800 AM EDT FRI JUL 29 2016

NOTE: "FAIR" INDICATES FEW OR NO CLOUDS BELOW 12,000 FEET WITH NO
SIGNIFICANT WEATHER AND/OR OBSTRUCTION TO VISIBILITY.

MIZ047>049-052>055-059>063-066>070-074>076-081>083-291300-
SOUTHEAST LOWER MICHIGAN

CITY           SKY/WX    TMP DP  RH WIND       PRES   REMARKS
ADRIAN         MOSUNNY   67  63  87 N3        29.97R
6HR MIN TEMP:  64; 6HR MAX TEMP:  69;

ALMA           RAIN      65  64  95 N6        30.01R
ANN ARBOR      CLOUDY    70  63  78 N6        29.96R
BAD AXE        LGT RAIN  66  62  89 NE6       30.01R
CARO           CLOUDY    66  64  90 NE5       29.98S
DETROIT CITY   SUNNY     72  64  76 NE7       29.95R
6HR MIN TEMP:  69; 6HR MAX TEMP:  72;

DETROIT        PTSUNNY   73  63  70 N7        29.95R
6HR MIN TEMP:  68; 6HR MAX TEMP:  73;

FLINT          CLOUDY    71  62  73 NE6       29.98R
6HR MIN TEMP:  68; 6HR MAX TEMP:  72;

GROSSE ILE     SUNNY     72  65  78 NE6       29.93S
6HR MIN TEMP:  68; 6HR MAX TEMP:  73;

HILLSDALE      PTSUNNY   67  61  79 NE3       29.97R
6HR MIN TEMP:  59; 6HR MAX TEMP:  87;

HOWELL         CLOUDY    65  63  91 NE3       29.98R
6HR MIN TEMP:  64; 6HR MAX TEMP:  69;


CITY           SKY/WX    TMP DP  RH WIND       PRES   REMARKS
JACKSON        PTSUNNY   67  64  90 VRB5      29.98R
6HR MIN TEMP:  64; 6HR MAX TEMP:  69;

LAMBERTVILLE   SUNNY     71  62  74 CALM      29.95R
6HR MIN TEMP:  66; 6HR MAX TEMP:  72;

LANSING        SUNNY     68  60  75 NE7       29.99R
6HR MIN TEMP:  64; 6HR MAX TEMP:  68;

LAPEER         PTSUNNY   67  63  84 N5        29.99R
6HR MIN TEMP:  64; 6HR MAX TEMP:  67;

MASON          MOSUNNY   65  62  90 E5        29.98R
MONROE         MOSUNNY   68  63  84 SW3       29.94R
6HR MIN TEMP:  63; 6HR MAX TEMP:  68;

MT. CLEMENS    MOSUNNY   70  65  83 N5        29.93R
6HR MIN TEMP:  66; 6HR MAX TEMP:  70;

PONTIAC        CLOUDY    68  64  87 N6        29.96R
6HR MIN TEMP:  66; 6HR MAX TEMP:  70;

PORT HOPE        N/A     70  63  78 NE18      30.00R
6HR MIN TEMP:  70; 6HR MAX TEMP:  72;

PORT HURON     CLOUDY    70  66  88 CALM      29.97R
TRI CITIES     CLOUDY    70  62  76 NE8       30.00R
6HR MIN TEMP:  66; 6HR MAX TEMP:  70; 6HR PCP: TRACE;

MIDLAND        LGT RAIN  65  63  92 N5        30.00R
6HR MIN TEMP:  64; 6HR MAX TEMP:  68; 6HR PCP:  0.01;

TROY           SUNNY     72  64  74 NE5       29.97R
SAGINAW HB     CLOUDY    68  63  83 NE5       29.99R
$$
MIZ043>046-050>051-056>058-064>065-071>073-077>080-291300-
SOUTHWEST LOWER MICHIGAN

CITY           SKY/WX    TMP DP  RH WIND       PRES   REMARKS
BATTLE CREEK   CLOUDY    65  65 100 E6        29.98R
6HR MIN TEMP:  65; 6HR MAX TEMP:  68; 6HR PCP:  0.06;

BENTON HARBOR  MOSUNNY   69  65  86 E6        29.93R
6HR MIN TEMP:  66; 6HR MAX TEMP:  69;

BIG RAPIDS     CLOUDY    63  63 100 NE3       30.01R
6HR MIN TEMP:  63; 6HR MAX TEMP:  67; 6HR PCP:  0.26;

COLDWATER      CLOUDY    69  63  81 E3        29.96R
6HR MIN TEMP:  67; 6HR MAX TEMP:  70;

FREMONT        LGT RAIN  63  63 100 E7        29.99S
HOLLAND        CLOUDY    67  64  90 E7        29.97S
6HR MIN TEMP:  67; 6HR MAX TEMP:  70; 6HR PCP:  0.01;

GRAND RAPIDS   PTSUNNY   67  63  87 NE12      29.98S
6HR MIN TEMP:  66; 6HR MAX TEMP:  69; 6HR PCP:  0.01;

IONIA          FAIR      65  60  81 NE9       29.99R
6HR MIN TEMP:  65; 6HR MAX TEMP:  68;

KALAMAZOO      PTSUNNY   68  63  84 NE5       29.97R
6HR MIN TEMP:  67; 6HR MAX TEMP:  70;

LUDINGTON      CLOUDY    63  62  97 E5        30.00R
6HR MIN TEMP:  62; 6HR MAX TEMP:  67; 6HR PCP:  0.12;

MARSHALL       LGT RAIN  66  65  95 CALM      29.97R
6HR MIN TEMP:  66; 6HR MAX TEMP:  70; 6HR PCP:  0.02;

MOUNT PLEASANT LGT RAIN  65  63  93 N5        30.01R
6HR MIN TEMP:  65; 6HR MAX TEMP:  68; 6HR PCP:  0.02;

MUSKEGON       HVY RAIN  64  62  93 E15       29.98R FOG
6HR MIN TEMP:  64; 6HR MAX TEMP:  69; 6HR PCP:  0.45;

SOUTH HAVEN    MOSUNNY   67  65  96 NE8       29.95R
$$
MIZ016>042-291300-
NORTHERN LOWER MICHIGAN

CITY           SKY/WX    TMP DP  RH WIND       PRES   REMARKS
ALPENA         CLOUDY    65  57  75 NE3       30.06R
6HR MIN TEMP:  60; 6HR MAX TEMP:  67;

BEAVER ISLAND  MOSUNNY   66  59  77 E10       30.06S
6HR MIN TEMP:  60; 6HR MAX TEMP:  66;

BELLAIRE       CLOUDY    61  57  88 CALM      30.05R
6HR MIN TEMP:  58; 6HR MAX TEMP:  63;

CADILLAC       CLOUDY    62  60  94 NE5       30.04R
CHARLEVOIX     CLOUDY    67  57  71 E10G16    30.08R
6HR MIN TEMP:  65; 6HR MAX TEMP:  67;

FRANKFORT      CLOUDY    64  60  88 E6        30.03R
GAYLORD        PTSUNNY   62  54  74 NE7       30.07R
6HR MIN TEMP:  60; 6HR MAX TEMP:  64;

GRAYLING       MOSUNNY   65  58  79 E5        30.06R
HARBOR SPRINGS MOSUNNY   64  59  83 E8        30.06R
HOUGHTON LAKE  CLOUDY    62  60  93 NE6       30.05R
6HR MIN TEMP:  61; 6HR MAX TEMP:  65; 6HR PCP:  0.21;

MANISTEE       LGT RAIN  63  61  93 E3        30.01R
OSCODA         MOSUNNY   68  59  72 NE12      30.03S
6HR MIN TEMP:  63; 6HR MAX TEMP:  69;

PELLSTON       MOSUNNY   60  57  89 CALM      30.07R
6HR MIN TEMP:  52; 6HR MAX TEMP:  60;

ROGERS CITY    CLOUDY    66  57  72 E6        30.07S
TRAVERSE CITY  LGT RAIN  65  61  87 E3        30.03R
6HR MIN TEMP:  64; 6HR MAX TEMP:  69; 6HR PCP:  0.03;

$$
MIZ007>008-015-291300-
EASTERN UPPER MICHIGAN

CITY           SKY/WX    TMP DP  RH WIND       PRES   REMARKS
KINROSS        CLOUDY    62  54  74 E8        30.09S
6HR MIN TEMP:  54; 6HR MAX TEMP:  63;

MACKINAC ISLAN CLOUDY    64  56  75 E8        30.07S
6HR MIN TEMP:  61; 6HR MAX TEMP:  64;

NEWBERRY       SUNNY     57  55  94 CALM      30.08S
S. S. MARIE    MOSUNNY   62  54  74 E5        30.09R
6HR MIN TEMP:  58; 6HR MAX TEMP:  64;

MUNISING         N/A     63  55  75 NE6       30.07R
6HR MIN TEMP:  52; 6HR MAX TEMP:  64;

$$
MIZ004>006-011>014-085-291300-
CENTRAL UPPER MICHIGAN

CITY           SKY/WX    TMP DP  RH WIND       PRES   REMARKS
MANISTIQUE     SUNNY     61  57  88 CALM      30.07R
ESCANABA       MOSUNNY   61  57  88 N5        30.05R
6HR MIN TEMP:  57; 6HR MAX TEMP:  61;

MENOMINEE      MOSUNNY  N/A N/A N/A N3        30.05R
SAWYER-GWINN   SUNNY     59  55  88 NE5       30.09R
$$
MIZ001>003-009>011-084-291300-
WESTERN UPPER MICHIGAN

CITY           SKY/WX    TMP DP  RH WIND       PRES   REMARKS
IRON MOUNTAIN  MOSUNNY   55  51  86 N5        30.07R
6HR MIN TEMP:  50; 6HR MAX TEMP:  55;

HOUGHTON       SUNNY     62  52  69 E6        30.10S
6HR MIN TEMP:  51; 6HR MAX TEMP:  62;

COPPER HARBOR    N/A     58  55  90 W3        30.10S
6HR MIN TEMP:  54; 6HR MAX TEMP:  58;

IRONWOOD       SUNNY     48  46  93 CALM      30.11S
6HR MIN TEMP:  43; 6HR MAX TEMP:  48;

$$

ABBREVIATIONS USED IN REMARKS
   TC - TEMPERATURE IN CELSIUS
  WCI - WIND CHILL INDEX
   HX - HEAT INDEX
  VSB - VISIBILITY





USA.gov is the U.S. government's official web portal to all federal, state and local government web resources and services.